TimeCST,TemperatureF,Dew PointF,Humidity,Sea Level PressureIn,VisibilityMPH,Wind Direction,Wind SpeedMPH,Gust SpeedMPH,PrecipitationIn,Events,Conditions,WindDirDegrees,DateUTC
12:15 AM,39.2,33.8,81,29.61,10.0,West,8.1,-,N/A,,Overcast,270,2014-01-13 06:15:00
12:35 AM,39.2,33.8,81,29.61,10.0,West,9.2,-,N/A,,Overcast,270,2014-01-13 06:35:00
12:55 AM,39.2,33.8,81,29.60,10.0,West,8.1,-,N/A,,Overcast,280,2014-01-13 06:55:00
1:15 AM,39.2,33.8,81,29.60,10.0,West,10.4,-,N/A,,Overcast,270,2014-01-13 07:15:00
1:35 AM,39.2,33.8,81,29.60,10.0,West,12.7,-,N/A,,Overcast,280,2014-01-13 07:35:00
1:55 AM,39.2,33.8,81,29.61,10.0,WNW,10.4,-,N/A,,Overcast,290,2014-01-13 07:55:00
2:15 AM,39.2,33.8,81,29.61,10.0,West,8.1,-,N/A,,Overcast,280,2014-01-13 08:15:00
2:35 AM,39.2,32.0,75,29.62,10.0,WNW,10.4,-,N/A,,Overcast,290,2014-01-13 08:35:00
2:55 AM,39.2,32.0,75,29.62,10.0,WNW,11.5,-,N/A,,Overcast,290,2014-01-13 08:55:00
3:15 AM,39.2,32.0,75,29.62,10.0,WNW,13.8,-,N/A,,Overcast,290,2014-01-13 09:15:00
3:35 AM,37.4,32.0,81,29.63,10.0,WNW,16.1,-,N/A,,Overcast,300,2014-01-13 09:35:00
3:55 AM,37.4,32.0,81,29.64,10.0,WNW,18.4,-,N/A,,Mostly Cloudy,300,2014-01-13 09:55:00
4:15 AM,37.4,32.0,81,29.65,10.0,WNW,18.4,25.3,N/A,,Scattered Clouds,300,2014-01-13 10:15:00
4:35 AM,35.6,32.0,87,29.66,10.0,WNW,20.7,28.8,N/A,,Partly Cloudy,300,2014-01-13 10:35:00
4:55 AM,35.6,32.0,87,29.67,10.0,NW,19.6,27.6,N/A,,Partly Cloudy,310,2014-01-13 10:55:00
5:15 AM,33.8,32.0,93,29.68,10.0,NW,19.6,25.3,N/A,,Clear,310,2014-01-13 11:15:00
5:35 AM,33.8,30.2,87,29.68,10.0,NW,19.6,25.3,N/A,,Clear,310,2014-01-13 11:35:00
5:55 AM,32.0,30.2,93,29.69,10.0,NW,19.6,-,N/A,,Clear,310,2014-01-13 11:55:00
6:15 AM,32.0,30.2,93,29.71,10.0,NW,16.1,23.0,N/A,,Scattered Clouds,310,2014-01-13 12:15:00
6:35 AM,32.0,32.0,100,29.72,10.0,NW,16.1,-,N/A,,Mostly Cloudy,320,2014-01-13 12:35:00
6:55 AM,32.0,32.0,100,29.72,10.0,NW,17.3,26.5,N/A,,Overcast,320,2014-01-13 12:55:00
7:15 AM,32.0,30.2,93,29.72,10.0,NW,20.7,28.8,N/A,,Overcast,320,2014-01-13 13:15:00
7:35 AM,32.0,30.2,93,29.72,10.0,NW,20.7,-,N/A,,Overcast,320,2014-01-13 13:35:00
7:55 AM,30.2,26.6,86,29.74,10.0,NW,18.4,27.6,N/A,,Scattered Clouds,320,2014-01-13 13:55:00
8:15 AM,30.2,23.0,75,29.75,10.0,NW,20.7,27.6,N/A,,Clear,320,2014-01-13 14:15:00
8:35 AM,30.2,24.8,80,29.77,10.0,NNW,17.3,-,N/A,,Clear,330,2014-01-13 14:35:00
8:55 AM,30.2,24.8,80,29.78,10.0,NW,16.1,-,N/A,,Clear,320,2014-01-13 14:55:00
9:15 AM,30.2,24.8,80,29.78,10.0,NW,16.1,26.5,N/A,,Clear,320,2014-01-13 15:15:00
9:35 AM,32.0,24.8,75,29.79,10.0,NW,17.3,26.5,N/A,,Clear,320,2014-01-13 15:35:00
9:55 AM,32.0,24.8,75,29.80,10.0,NW,18.4,-,N/A,,Clear,320,2014-01-13 15:55:00
10:15 AM,32.0,24.8,75,29.79,10.0,NW,15.0,24.2,N/A,,Clear,320,2014-01-13 16:15:00
10:35 AM,33.8,24.8,70,29.80,10.0,NW,17.3,24.2,N/A,,Clear,320,2014-01-13 16:35:00
10:55 AM,33.8,24.8,70,29.79,10.0,NW,17.3,-,N/A,,Clear,320,2014-01-13 16:55:00
11:15 AM,33.8,24.8,70,29.79,10.0,NW,16.1,-,N/A,,Clear,310,2014-01-13 17:15:00
11:35 AM,35.6,23.0,60,29.78,10.0,NW,17.3,-,N/A,,Clear,310,2014-01-13 17:35:00
11:55 AM,35.6,21.2,56,29.77,10.0,NW,12.7,-,N/A,,Clear,310,2014-01-13 17:55:00
12:15 PM,37.4,21.2,52,29.77,10.0,WNW,13.8,-,N/A,,Clear,300,2014-01-13 18:15:00
12:35 PM,37.4,23.0,56,29.76,10.0,WNW,15.0,-,N/A,,Clear,300,2014-01-13 18:35:00
12:55 PM,37.4,23.0,56,29.75,10.0,WNW,10.4,-,N/A,,Clear,300,2014-01-13 18:55:00
1:15 PM,39.2,23.0,52,29.75,10.0,West,11.5,-,N/A,,Clear,280,2014-01-13 19:15:00
1:35 PM,39.2,23.0,52,29.74,10.0,WNW,12.7,20.7,N/A,,Clear,290,2014-01-13 19:35:00
1:55 PM,39.2,23.0,52,29.74,10.0,West,15.0,-,N/A,,Clear,270,2014-01-13 19:55:00
2:15 PM,39.2,21.2,49,29.74,10.0,West,12.7,20.7,N/A,,Clear,280,2014-01-13 20:15:00
2:35 PM,41.0,21.2,45,29.73,10.0,West,10.4,17.3,N/A,,Clear,260,2014-01-13 20:35:00
2:55 PM,41.0,21.2,45,29.74,10.0,West,11.5,17.3,N/A,,Clear,260,2014-01-13 20:55:00
3:15 PM,41.0,21.2,45,29.73,10.0,WSW,13.8,-,N/A,,Clear,240,2014-01-13 21:15:00
3:35 PM,41.0,21.2,45,29.73,10.0,WSW,13.8,-,N/A,,Clear,240,2014-01-13 21:35:00
3:55 PM,41.0,21.2,45,29.73,10.0,SW,11.5,-,N/A,,Clear,230,2014-01-13 21:55:00
4:15 PM,39.2,21.2,49,29.74,10.0,SW,11.5,-,N/A,,Clear,230,2014-01-13 22:15:00
4:35 PM,37.4,21.2,52,29.74,10.0,SW,10.4,-,N/A,,Clear,220,2014-01-13 22:35:00
4:55 PM,37.4,21.2,52,29.73,10.0,SSW,9.2,-,N/A,,Scattered Clouds,210,2014-01-13 22:55:00
5:15 PM,37.4,21.2,52,29.73,10.0,SSW,11.5,-,N/A,,Overcast,210,2014-01-13 23:15:00
5:35 PM,37.4,21.2,52,29.72,10.0,SSW,12.7,-,N/A,,Overcast,210,2014-01-13 23:35:00
5:55 PM,37.4,23.0,56,29.71,10.0,SSW,11.5,-,N/A,,Overcast,210,2014-01-13 23:55:00
6:15 PM,35.6,23.0,60,29.70,10.0,SSW,11.5,-,N/A,,Mostly Cloudy,210,2014-01-14 00:15:00
6:35 PM,35.6,23.0,60,29.69,10.0,SSW,16.1,-,N/A,,Mostly Cloudy,210,2014-01-14 00:35:00
6:55 PM,35.6,23.0,60,29.69,10.0,SSW,15.0,-,N/A,,Partly Cloudy,210,2014-01-14 00:55:00
7:15 PM,33.8,23.0,65,29.68,10.0,SSW,12.7,18.4,N/A,,Mostly Cloudy,200,2014-01-14 01:15:00
7:35 PM,32.0,23.0,69,29.67,10.0,SSW,13.8,-,N/A,,Scattered Clouds,200,2014-01-14 01:35:00
7:55 PM,33.8,23.0,65,29.66,10.0,SSW,16.1,-,N/A,,Clear,200,2014-01-14 01:55:00
8:15 PM,33.8,24.8,70,29.65,10.0,SSW,16.1,-,N/A,,Clear,210,2014-01-14 02:15:00
8:35 PM,33.8,24.8,70,29.65,10.0,SSW,19.6,-,N/A,,Clear,210,2014-01-14 02:35:00
8:55 PM,33.8,24.8,70,29.64,10.0,SSW,15.0,-,N/A,,Clear,210,2014-01-14 02:55:00
9:15 PM,33.8,26.6,75,29.63,10.0,SSW,17.3,-,N/A,,Clear,210,2014-01-14 03:15:00
9:35 PM,33.8,26.6,75,29.63,10.0,SW,18.4,-,N/A,,Clear,230,2014-01-14 03:35:00
9:55 PM,33.8,26.6,75,29.62,10.0,SW,18.4,-,N/A,,Clear,220,2014-01-14 03:55:00
10:15 PM,33.8,28.4,81,29.62,10.0,SW,18.4,-,N/A,,Clear,220,2014-01-14 04:15:00
10:35 PM,33.8,28.4,81,29.61,10.0,SW,20.7,-,N/A,,Clear,220,2014-01-14 04:35:00
10:55 PM,33.8,28.4,81,29.60,10.0,SW,20.7,-,N/A,,Clear,220,2014-01-14 04:55:00
11:15 PM,33.8,28.4,81,29.60,10.0,SW,19.6,-,N/A,,Partly Cloudy,220,2014-01-14 05:15:00
11:35 PM,33.8,28.4,81,29.60,10.0,SW,18.4,-,N/A,,Mostly Cloudy,220,2014-01-14 05:35:00
11:55 PM,35.6,28.4,75,29.59,10.0,SW,17.3,23.0,N/A,,Overcast,230,2014-01-14 05:55:00